Miscellaneous Local Product
Issued by NWS Hastings, NE

Home | Current Version | Previous Version | Text Only | Print | Product List | Glossary Off
Versions: 1 2 3 4 5 6 7 8 9 10 11 12 13 14 15 16 17 18 19 20 21 22 23 24 25 26 27 28 29 30 31 32 33 34 35 36 37 38 39 40 41 42 43 44 45 46 47 48 49 50

303
AXUS43 KGID 140502
MISGRI

GID CWA HOURLY WEATHER ROUNDUP
NATIONAL WEATHER SERVICE HASTINGS NE
1100 PM CST WED DEC 13 2017

NOTE: "FAIR" INDICATES FEW OR NO CLOUDS BELOW 12,000 FEET WITH NO
SIGNIFICANT WEATHER AND/OR OBSTRUCTIONS TO VISIBILITY.

...SOUTH CENTRAL NEBRASKA...

CITY           SKY/WX    TMP DP  RH WIND       PRES   REMARKS
GRAND ISLAND   PTCLDY    32  26  78 N10       30.04R WCI  24
KEARNEY        CLOUDY    34  23  64 N10       30.04R WCI  26
HASTINGS       CLOUDY    31  23  72 N6        30.02R WCI  25
ORD            CLOUDY    34  26  72 NW8       30.03R WCI  27
YORK           MOCLDY    32  27  80 CALM      30.02R
AURORA         CLOUDY    33  26  76 N9        30.02R WCI  25
LEXINGTON      CLOUDY    36  24  62 NW8       30.04R WCI  29
HOLDREGE       PTCLDY    38  25  59 NW10      30.02R WCI  31
HEBRON         PTCLDY    35  27  72 CALM      30.03R

...NEBRASKA PANHANDLE...

CITY           SKY/WX    TMP DP  RH WIND       PRES   REMARKS
CHADRON        CLOUDY    35  22  58 W5        30.12R WCI  31
ALLIANCE       CLOUDY    34  23  64 NW7       30.11R WCI  28
SCOTTSBLUFF    CLOUDY    38  24  57 N25G32    30.15R WCI  27
SIDNEY         CLOUDY    37  18  46 N16       30.11R WCI  28

...WESTERN AND NORTH CENTRAL NEBRASKA...

CITY           SKY/WX    TMP DP  RH WIND       PRES   REMARKS
VALENTINE      CLOUDY    37  21  52 NW10      30.05R WCI  30
AINSWORTH      CLOUDY    31  27  83 NW3       30.05R
ONEILL         CLOUDY    33  27  76 NW10      30.03R WCI  25
BROKEN BOW     PTCLDY    38  22  52 N10       30.02R WCI  31
IMPERIAL       CLOUDY    37  20  50 N9        30.10R WCI  30
NORTH PLATTE   CLOUDY    37  24  59 NW8       30.08R WCI  31
MCCOOK         CLOUDY    38  23  55 NW12      30.08R WCI  30

...EASTERN NEBRASKA...

CITY           SKY/WX    TMP DP  RH WIND       PRES   REMARKS
NORFOLK        CLOUDY    36  26  67 NW13      29.99R WCI  27
SO SIOUX CITY  CLOUDY    35  28  75 N13       29.99R WCI  26
TEKAMAH        CLOUDY    38  26  62 N15       29.99R WCI  29
COLUMBUS       CLOUDY    37  25  61 N12       30.02R WCI  29
ALBION         CLOUDY    35  27  71 N7        30.02R WCI  29
OMAHA EPPLEY   CLOUDY    39  26  59 N15       29.98R WCI  31
OFFUTT AFB     CLOUDY    39  26  59 N16G22    29.97R WCI  31
MILLARD        CLOUDY    41  28  60 N7        29.98R
LINCOLN        CLOUDY    39  25  57 N18       30.02R WCI  30
NEBRASKA CITY  CLOUDY    39  27  62 N14       29.98R WCI  31
BEATRICE       MOCLDY    31  26  83 NW7       30.00R WCI  24
FALLS CITY     CLOUDY    38  27  64 NW7       29.97R WCI  33

...NORTHERN KANSAS...

CITY           SKY/WX    TMP DP  RH WIND       PRES   REMARKS
GOODLAND       CLOUDY    36  17  46 N7        30.09R WCI  30
HILL CITY      PTCLDY    36  21  54 NW8       30.07R WCI  30
NORTON         CLEAR     34  18  51 NW8       30.05R WCI  27
PHILLIPSBURG   CLEAR     32  21  64 W7        30.05R WCI  26
SMITH CENTER   CLEAR     28  21  74 W3        30.03R
RUSSELL        CLEAR     29  20  69 NW9       30.01R WCI  20
CONCORDIA      CLEAR     35  25  66 N10       30.01R WCI  27
SALINA         CLEAR     35  23  61 NW6       30.00R WCI  30
TOPEKA         CLEAR     36  28  73 N7        29.98S WCI  30



USA.gov is the U.S. government's official web portal to all federal, state and local government web resources and services.